Location: Township of Marena
(38.1747°N, 99.6798°W)
Time: 11:54:28
(UTC+00:00)

OAO 2 Rocket - Pass Details

Date: 26 October 2020
Orbit: 676 x 746 km, 35.0° (Epoch: 24 November)

Event Time Altitude Azimuth Distance (km) Brightness Sun altitude
Rises 01:39:27 0° 251° (WSW) 3,040 7.8 -22.7°
Reaches altitude 10° 01:41:54 10° 246° (WSW) 2,117 6.7 -23.2°
Maximum altitude 01:46:42 53° 170° (S) 829 3.5 -24.2°
Enters shadow 01:46:46 53° 167° (SSE) 829 3.5 -24.2°
